Flag Weather past 2 weeks in Brasilia, Distrito Federal, Brazil

Now
77 °F

Broken clouds.


Feels Like: 79 °F
Forecast: 68 / 74 °F
Wind: 8 mph from North

Location: Brasilia Aeroporto

Current Time: Nov 26, 2014 at 12:02:11 PM

Latest Report: Nov 26, 2014 at 11:00 AM


Visibility: N/A

Pressure: 30.07 "Hg

Humidity: 61%

Dew point: 63 °F

Location of BrasiliaLocation

Historic Weather in Brasilia — Graph

°F

Brasilia temperature yesterday

Maximum temperature yesterday: 82 °F (at 2:00 PM)
Minimum temperature yesterday: 32 °F (at 10:00 PM)
Average temperature yesterday: 71 °F

Past Weeks' High & Low Weather Summary

 TemperatureHumidityPressure
High90 °F (Nov 21, 3:00 PM)100% (Nov 14, 3:00 PM)30.12 "Hg (Nov 14, 3:00 PM)
Low32 °F (Nov 15, 11:00 PM)29% (Nov 21, 3:00 PM)29.89 "Hg (Nov 11, 6:00 PM)
Average74 °F69%30.02 "Hg
* Reported Nov 11 11:00 AM — Nov 26 11:00 AM, Brasilia, Weather by CustomWeather, © 2014

Note: Actual official high and low records may vary slightly from our data, if they occured in-between our weather recording intervals... More about our weather records

Advertising

Brasilia weather history for previous 24 hours

 ConditionsComfort  
Time TempWeatherWind HumidityBarometerVisibility
11:00 AM
Nov 26
77 °FBroken clouds.8 mph61%30.07 "HgN/A
10:00 AM75 °FBroken clouds.8 mph65%30.07 "HgN/A
9:00 AM72 °FPartly sunny.2 mph83%30.07 "HgN/A
8:00 AM70 °FPartly sunny.3 mph83%30.04 "HgN/A
7:00 AM68 °FPassing clouds.No wind88%30.04 "HgN/A
6:00 AM68 °FPartly cloudy.No wind88%30.01 "HgN/A
5:00 AM68 °FPartly cloudy.5 mph88%29.98 "HgN/A
4:00 AM70 °FPassing clouds.No wind83%29.98 "HgN/A
3:00 AM70 °FPassing clouds.No wind83%30.01 "HgN/A
2:00 AM68 °FScattered showers. Partly cloudy.No wind88%30.01 "HgN/A
1:00 AM68 °FPartly cloudy.No wind88%30.04 "HgN/A
12:00 AM68 °FOvercast.No wind88%30.04 "HgN/A
11:00 PM
Nov 25
N/ALight rain.No windN/AN/AN/A
10:00 PM32 °FThunderstorms. Partly cloudy.No wind100%30.07 "Hg4 mi
9:00 PM68 °FThunderstorms. Partly cloudy.No wind88%N/A2 mi
8:00 PM68 °FThunderstorms. Partly sunny.5 mph88%N/A4 mi
7:07 PM68 °FThunderstorms. Fog.6 mph88%29.98 "Hg1 mi
7:00 PM68 °FMild.7 mph88%30.01 "Hg1 mi
6:00 PM70 °FSleet. Cloudy.14 mph88%29.98 "Hg1 mi
5:00 PM79 °FScattered showers. Broken clouds.5 mph58%N/AN/A
4:00 PM82 °FScattered showers. Broken clouds.3 mph51%N/AN/A
3:00 PM82 °FBroken clouds.7 mph51%29.98 "HgN/A
2:00 PM82 °FBroken clouds.5 mph48%29.98 "HgN/A
1:00 PM81 °FBroken clouds.No wind54%30.04 "HgN/A
12:00 PM45 °FScattered showers. Broken clouds.7 mph100%30.04 "HgN/A
Weather by CustomWeather, © 2014

See weather overviewHow to use our weather pages